Time,TemperatureF,DewpointF,PressureIn,WindDirection,WindDirectionDegrees,WindSpeedMPH,WindSpeedGustMPH,Humidity,HourlyPrecipIn,Conditions,Clouds,dailyrainin,SolarRadiationWatts/m^2,SoftwareType,DateUTC
2013-03-09 00:03:00,45.1,40.0,30.03,SW,234,3.0,7.0,82,0.00,,,0.00,0,weatherlink.com 1.10,2013-03-09 08:03:00,
2013-03-09 00:18:00,45.9,41.0,30.03,SSW,202,4.0,8.0,82,0.00,,,0.00,0,weatherlink.com 1.10,2013-03-09 08:18:00,
2013-03-09 00:33:00,44.7,40.0,30.03,South,174,3.0,5.0,82,0.00,,,0.00,0,weatherlink.com 1.10,2013-03-09 08:33:00,
2013-03-09 00:48:00,43.5,39.0,30.04,WSW,239,2.0,7.0,85,0.00,,,0.00,0,weatherlink.com 1.10,2013-03-09 08:48:00,
2013-03-09 01:03:00,44.0,40.0,30.04,WSW,239,3.0,4.0,85,0.00,,,0.00,0,weatherlink.com 1.10,2013-03-09 09:03:00,
2013-03-09 01:18:00,44.2,40.0,30.05,WSW,249,2.0,6.0,84,0.00,,,0.00,0,weatherlink.com 1.10,2013-03-09 09:18:00,
2013-03-09 01:33:00,44.5,40.0,30.05,SW,235,6.0,7.0,84,0.00,,,0.00,0,weatherlink.com 1.10,2013-03-09 09:33:00,
2013-03-09 01:48:00,45.3,40.0,30.06,West,265,0.0,6.0,83,0.00,,,0.00,0,weatherlink.com 1.10,2013-03-09 09:48:00,
2013-03-09 02:03:00,44.5,40.0,30.07,SSE,160,1.0,4.0,83,0.00,,,0.00,0,weatherlink.com 1.10,2013-03-09 10:03:00,
2013-03-09 02:18:00,43.8,39.0,30.07,SE,144,2.0,4.0,84,0.00,,,0.00,0,weatherlink.com 1.10,2013-03-09 10:18:00,
2013-03-09 02:33:00,42.4,39.0,30.07,SSE,151,2.0,4.0,87,0.00,,,0.00,0,weatherlink.com 1.10,2013-03-09 10:33:00,
2013-03-09 02:48:00,41.9,39.0,30.07,SSE,160,3.0,4.0,88,0.00,,,0.00,0,weatherlink.com 1.10,2013-03-09 10:48:00,
2013-03-09 03:03:00,41.6,38.0,30.08,SSE,163,0.0,1.0,87,0.00,,,0.00,0,weatherlink.com 1.10,2013-03-09 11:03:00,
2013-03-09 03:18:00,40.7,38.0,30.08,SSE,163,0.0,0.0,88,0.00,,,0.00,0,weatherlink.com 1.10,2013-03-09 11:18:00,
2013-03-09 03:33:00,40.1,37.0,30.08,SSE,163,0.0,0.0,89,0.00,,,0.00,0,weatherlink.com 1.10,2013-03-09 11:33:00,
2013-03-09 03:48:00,39.9,37.0,30.09,SSE,163,0.0,1.0,88,0.00,,,0.00,0,weatherlink.com 1.10,2013-03-09 11:48:00,
2013-03-09 04:03:00,38.6,36.0,30.10,SSE,163,0.0,1.0,90,0.00,,,0.00,0,weatherlink.com 1.10,2013-03-09 12:03:00,
2013-03-09 04:18:00,39.5,37.0,30.11,South,180,0.0,3.0,92,0.00,,,0.00,0,weatherlink.com 1.10,2013-03-09 12:18:00,
2013-03-09 04:33:00,39.7,37.0,30.12,South,180,0.0,0.0,91,0.00,,,0.00,0,weatherlink.com 1.10,2013-03-09 12:33:00,
2013-03-09 04:49:00,39.0,36.0,30.13,South,180,0.0,0.0,90,0.00,,,0.00,0,weatherlink.com 1.10,2013-03-09 12:49:00,
2013-03-09 05:04:00,37.9,35.0,30.14,South,180,0.0,0.0,90,0.00,,,0.00,0,weatherlink.com 1.10,2013-03-09 13:04:00,
2013-03-09 05:19:00,38.7,37.0,30.14,South,180,0.0,0.0,93,0.00,,,0.00,0,weatherlink.com 1.10,2013-03-09 13:19:00,
2013-03-09 05:34:00,38.7,37.0,30.15,South,180,0.0,1.0,92,0.00,,,0.00,0,weatherlink.com 1.10,2013-03-09 13:34:00,
2013-03-09 05:49:00,37.9,36.0,30.16,SSW,213,2.0,4.0,92,0.00,,,0.00,0,weatherlink.com 1.10,2013-03-09 13:49:00,
2013-03-09 06:04:00,38.0,36.0,30.17,West,273,1.0,4.0,93,0.00,,,0.00,0,weatherlink.com 1.10,2013-03-09 14:04:00,
2013-03-09 06:19:00,37.6,36.0,30.18,WNW,294,5.0,8.0,93,0.00,,,0.00,0,weatherlink.com 1.10,2013-03-09 14:19:00,
2013-03-09 06:34:00,37.0,35.0,30.18,NW,304,2.0,7.0,93,0.00,,,0.00,7,weatherlink.com 1.10,2013-03-09 14:34:00,
2013-03-09 06:49:00,38.2,37.0,30.19,NW,313,3.0,7.0,94,0.00,,,0.00,25,weatherlink.com 1.10,2013-03-09 14:49:00,
2013-03-09 07:04:00,38.8,37.0,30.19,NNW,330,4.0,5.0,94,0.00,,,0.00,58,weatherlink.com 1.10,2013-03-09 15:04:00,
2013-03-09 07:19:00,40.0,39.0,30.20,NNW,335,3.0,6.0,94,0.00,,,0.00,100,weatherlink.com 1.10,2013-03-09 15:19:00,
2013-03-09 07:34:00,41.5,40.0,30.21,NNW,334,5.0,6.0,94,0.00,,,0.00,155,weatherlink.com 1.10,2013-03-09 15:34:00,
2013-03-09 07:49:00,43.2,41.0,30.21,NNW,348,5.0,9.0,93,0.00,,,0.00,209,weatherlink.com 1.10,2013-03-09 15:49:00,
2013-03-09 08:04:00,44.6,42.0,30.22,NW,325,6.0,9.0,91,0.00,,,0.00,250,weatherlink.com 1.10,2013-03-09 16:04:00,
2013-03-09 08:19:00,46.2,44.0,30.23,North,350,8.0,9.0,90,0.00,,,0.00,297,weatherlink.com 1.10,2013-03-09 16:19:00,
2013-03-09 08:34:00,47.3,44.0,30.24,NNW,337,8.0,11.0,87,0.00,,,0.00,341,weatherlink.com 1.10,2013-03-09 16:34:00,
2013-03-09 08:49:00,48.7,44.0,30.24,NW,325,3.0,10.0,83,0.00,,,0.00,385,weatherlink.com 1.10,2013-03-09 16:49:00,
2013-03-09 09:05:00,50.1,45.0,30.25,North,350,6.0,11.0,82,0.00,,,0.00,429,weatherlink.com 1.10,2013-03-09 17:05:00,
2013-03-09 09:20:00,51.3,45.0,30.25,NNE,33,7.0,11.0,79,0.00,,,0.00,469,weatherlink.com 1.10,2013-03-09 17:20:00,
2013-03-09 09:35:00,52.3,46.0,30.25,NNW,348,8.0,11.0,78,0.00,,,0.00,510,weatherlink.com 1.10,2013-03-09 17:35:00,
2013-03-09 09:50:00,53.5,46.0,30.24,NE,34,6.0,11.0,76,0.00,,,0.00,545,weatherlink.com 1.10,2013-03-09 17:50:00,
2013-03-09 10:05:00,54.2,46.0,30.24,NNE,19,5.0,13.0,73,0.00,,,0.00,582,weatherlink.com 1.10,2013-03-09 18:05:00,
2013-03-09 10:20:00,55.1,45.0,30.25,NNW,341,7.0,14.0,70,0.00,,,0.00,610,weatherlink.com 1.10,2013-03-09 18:20:00,
2013-03-09 10:35:00,56.3,46.0,30.25,North,355,7.0,13.0,68,0.00,,,0.00,638,weatherlink.com 1.10,2013-03-09 18:35:00,
2013-03-09 10:50:00,57.6,46.0,30.25,NNE,22,9.0,15.0,65,0.00,,,0.00,661,weatherlink.com 1.10,2013-03-09 18:50:00,
2013-03-09 11:05:00,58.7,46.0,30.25,NNE,13,7.0,15.0,64,0.00,,,0.00,686,weatherlink.com 1.10,2013-03-09 19:05:00,
2013-03-09 11:20:00,59.2,46.0,30.25,North,350,8.0,16.0,61,0.00,,,0.00,700,weatherlink.com 1.10,2013-03-09 19:20:00,
2013-03-09 11:35:00,59.8,46.0,30.26,NNE,14,4.0,15.0,60,0.00,,,0.00,714,weatherlink.com 1.10,2013-03-09 19:35:00,
2013-03-09 11:50:00,61.4,45.0,30.25,NNW,342,5.0,15.0,56,0.00,,,0.00,726,weatherlink.com 1.10,2013-03-09 19:50:00,
2013-03-09 12:05:00,62.4,44.0,30.25,NNE,13,10.0,19.0,52,0.00,,,0.00,735,weatherlink.com 1.10,2013-03-09 20:05:00,
2013-03-09 12:20:00,63.6,43.0,30.25,North,5,11.0,15.0,48,0.00,,,0.00,735,weatherlink.com 1.10,2013-03-09 20:20:00,
2013-03-09 12:35:00,64.6,43.0,30.24,NNE,19,3.0,21.0,45,0.00,,,0.00,737,weatherlink.com 1.10,2013-03-09 20:35:00,
2013-03-09 12:50:00,65.2,42.0,30.24,NE,51,18.0,19.0,43,0.00,,,0.00,735,weatherlink.com 1.10,2013-03-09 20:50:00,
2013-03-09 13:05:00,66.1,40.0,30.23,NNE,19,13.0,18.0,39,0.00,,,0.00,724,weatherlink.com 1.10,2013-03-09 21:05:00,
2013-03-09 13:21:00,67.1,38.0,30.22,NNE,15,9.0,20.0,34,0.00,,,0.00,714,weatherlink.com 1.10,2013-03-09 21:21:00,
2013-03-09 13:36:00,67.9,36.0,30.22,NNE,32,15.0,21.0,31,0.00,,,0.00,698,weatherlink.com 1.10,2013-03-09 21:36:00,
2013-03-09 13:51:00,67.6,36.0,30.22,NNW,347,13.0,27.0,31,0.00,,,0.00,675,weatherlink.com 1.10,2013-03-09 21:51:00,
2013-03-09 14:06:00,68.5,37.0,30.22,NNE,19,17.0,22.0,32,0.00,,,0.00,585,weatherlink.com 1.10,2013-03-09 22:06:00,
2013-03-09 14:21:00,69.0,34.0,30.22,NNW,337,15.0,24.0,28,0.00,,,0.00,578,weatherlink.com 1.10,2013-03-09 22:21:00,
2013-03-09 14:36:00,69.2,36.0,30.22,North,355,8.0,21.0,30,0.00,,,0.00,596,weatherlink.com 1.10,2013-03-09 22:36:00,
2013-03-09 14:51:00,68.7,34.0,30.22,NNE,13,19.0,22.0,28,0.00,,,0.00,568,weatherlink.com 1.10,2013-03-09 22:51:00,
2013-03-09 15:06:00,69.1,34.0,30.21,NNE,19,13.0,21.0,27,0.00,,,0.00,527,weatherlink.com 1.10,2013-03-09 23:06:00,
2013-03-09 15:21:00,69.3,33.0,30.21,North,355,20.0,21.0,26,0.00,,,0.00,411,weatherlink.com 1.10,2013-03-09 23:21:00,
2013-03-09 15:36:00,69.4,35.0,30.21,North,360,5.0,20.0,28,0.00,,,0.00,408,weatherlink.com 1.10,2013-03-09 23:36:00,
2013-03-09 15:51:00,69.6,33.0,30.21,North,360,11.0,20.0,26,0.00,,,0.00,404,weatherlink.com 1.10,2013-03-09 23:51:00,
2013-03-09 16:06:00,69.2,34.0,30.21,NNE,22,12.0,17.0,27,0.00,,,0.00,367,weatherlink.com 1.10,2013-03-10 00:06:00,
2013-03-09 16:21:00,68.9,32.0,30.21,NNE,21,15.0,19.0,25,0.00,,,0.00,322,weatherlink.com 1.10,2013-03-10 00:21:00,
2013-03-09 16:36:00,68.8,31.0,30.21,North,355,11.0,15.0,25,0.00,,,0.00,278,weatherlink.com 1.10,2013-03-10 00:36:00,
2013-03-09 16:51:00,68.3,30.0,30.21,North,360,5.0,16.0,24,0.00,,,0.00,225,weatherlink.com 1.10,2013-03-10 00:51:00,
2013-03-09 17:06:00,67.6,30.0,30.21,North,355,7.0,13.0,25,0.00,,,0.00,169,weatherlink.com 1.10,2013-03-10 01:06:00,
2013-03-09 17:21:00,66.9,32.0,30.22,NNW,335,8.0,10.0,27,0.00,,,0.00,109,weatherlink.com 1.10,2013-03-10 01:21:00,
2013-03-09 17:36:00,65.4,33.0,30.22,North,349,5.0,9.0,30,0.00,,,0.00,39,weatherlink.com 1.10,2013-03-10 01:36:00,
2013-03-09 17:51:00,64.2,31.0,30.22,NNW,327,4.0,8.0,29,0.00,,,0.00,23,weatherlink.com 1.10,2013-03-10 01:51:00,
2013-03-09 18:06:00,62.5,33.0,30.22,North,350,6.0,7.0,33,0.00,,,0.00,5,weatherlink.com 1.10,2013-03-10 02:06:00,
2013-03-09 18:21:00,59.9,33.0,30.23,North,349,5.0,7.0,37,0.00,,,0.00,0,weatherlink.com 1.10,2013-03-10 02:21:00,
2013-03-09 18:36:00,58.4,34.0,30.23,North,349,4.0,6.0,40,0.00,,,0.00,0,weatherlink.com 1.10,2013-03-10 02:36:00,
2013-03-09 18:51:00,57.6,33.0,30.24,NNW,346,2.0,5.0,40,0.00,,,0.00,0,weatherlink.com 1.10,2013-03-10 02:51:00,
2013-03-09 19:06:00,55.2,33.0,30.24,NNW,348,2.0,3.0,44,0.00,,,0.00,0,weatherlink.com 1.10,2013-03-10 03:06:00,
2013-03-09 19:21:00,53.5,33.0,30.24,North,350,2.0,3.0,46,0.00,,,0.00,0,weatherlink.com 1.10,2013-03-10 03:21:00,
2013-03-09 19:36:00,51.9,33.0,30.24,North,350,0.0,2.0,49,0.00,,,0.00,0,weatherlink.com 1.10,2013-03-10 03:36:00,
2013-03-09 19:51:00,50.5,33.0,30.24,North,355,1.0,4.0,52,0.00,,,0.00,0,weatherlink.com 1.10,2013-03-10 03:51:00,
2013-03-09 20:06:00,49.3,33.0,30.25,NW,325,5.0,5.0,53,0.00,,,0.00,0,weatherlink.com 1.10,2013-03-10 04:06:00,
2013-03-09 20:21:00,51.9,33.0,30.25,NNW,329,1.0,5.0,48,0.00,,,0.00,0,weatherlink.com 1.10,2013-03-10 04:21:00,
2013-03-09 20:36:00,51.8,33.0,30.25,NW,326,1.0,3.0,49,0.00,,,0.00,0,weatherlink.com 1.10,2013-03-10 04:36:00,
2013-03-09 20:51:00,50.1,34.0,30.25,WNW,286,0.0,2.0,54,0.00,,,0.00,0,weatherlink.com 1.10,2013-03-10 04:51:00,
2013-03-09 21:06:00,48.6,35.0,30.25,NW,312,3.0,5.0,59,0.00,,,0.00,0,weatherlink.com 1.10,2013-03-10 05:06:00,
2013-03-09 21:21:00,48.5,35.0,30.26,NW,312,3.0,4.0,59,0.00,,,0.00,0,weatherlink.com 1.10,2013-03-10 05:21:00,
2013-03-09 21:36:00,48.7,35.0,30.26,NW,323,1.0,5.0,59,0.00,,,0.00,0,weatherlink.com 1.10,2013-03-10 05:36:00,
2013-03-09 21:51:00,49.2,35.0,30.26,NW,324,3.0,5.0,58,0.00,,,0.00,0,weatherlink.com 1.10,2013-03-10 05:51:00,
2013-03-09 22:06:00,49.2,35.0,30.26,NNW,332,2.0,5.0,58,0.00,,,0.00,0,weatherlink.com 1.10,2013-03-10 06:06:00,
2013-03-09 22:21:00,49.0,35.0,30.26,NNW,330,2.0,3.0,58,0.00,,,0.00,0,weatherlink.com 1.10,2013-03-10 06:21:00,
2013-03-09 22:36:00,48.6,36.0,30.27,NNW,331,3.0,6.0,61,0.00,,,0.00,0,weatherlink.com 1.10,2013-03-10 06:36:00,
2013-03-09 22:51:00,48.4,36.0,30.27,NNW,340,3.0,7.0,62,0.00,,,0.00,0,weatherlink.com 1.10,2013-03-10 06:51:00,
2013-03-09 23:06:00,46.9,36.0,30.26,NNW,341,2.0,3.0,65,0.00,,,0.00,0,weatherlink.com 1.10,2013-03-10 07:06:00,
2013-03-09 23:21:00,45.7,36.0,30.26,NNW,341,0.0,0.0,70,0.00,,,0.00,0,weatherlink.com 1.10,2013-03-10 07:21:00,
2013-03-09 23:36:00,45.1,36.0,30.27,SSW,206,2.0,4.0,70,0.00,,,0.00,0,weatherlink.com 1.10,2013-03-10 07:36:00,
2013-03-09 23:51:00,44.1,36.0,30.27,SSW,206,0.0,0.0,72,0.00,,,0.00,0,weatherlink.com 1.10,2013-03-10 07:51:00,